NOAA NWS Hourly Roundups by Site

Regional Weather Roundup for Seattle, WA

To Select Another Site Choose from List

Select Site:  

000
ASUS46 KSEW 120210
RWRWA

WASHINGTON REGIONAL WEATHER ROUNDUP
NATIONAL WEATHER SERVICE SEATTLE WA
700 PM PDT TUE MAY 11 2021

NOTE:"FAIR" INDICATES FEW OR NO CLOUDS BELOW 12,000 FEET WITH NO
SIGNIFICANT WEATHER AND/OR OBSTRUCTIONS TO VISIBILITY.

WAZ507-509-555>559-120300-
SEATTLE, TACOMA, EVERETT, AND VICINITY

CITY           SKY/WX    TMP DP  RH WIND       PRES   REMARKS
EVERETT        MOSUNNY   63  44  50 VRB6      30.16S
BOEING FIELD   MOSUNNY   66  41  40 NW9       30.14S
RENTON         MOSUNNY   68  43  40 NW9       30.13F
SEATAC AIRPORT PTSUNNY   68  41  37 NW6       30.14F
JBLM-MCCHORD   MOSUNNY   67  38  35 N7        30.14F
PUYALLUP       FAIR      66  37  34 CALM      30.15S
BREMERTON      PTSUNNY   66  39  37 NE8       30.15S
JBLM-FT LEWIS  MOSUNNY   68  40  36 N7        30.13F
TACOMA NARROWS MOSUNNY   63  39  41 NE5       30.15S
$$

WAZ001-503-506-510-514-515-120300-
NORTH INTERIOR

CITY           SKY/WX    TMP DP  RH WIND       PRES   REMARKS
BELLINGHAM     MOSUNNY   65  42  43 CALM      30.14F
FRIDAY HARBOR  PTSUNNY   60  45  57 W6        30.16F
EASTSOUND      MOSUNNY   63  34  34 CALM      30.14F
PORT ANGELES   MOSUNNY   53  45  74 NW7       30.19S
EDIZ HOOK      MOCLDY    51  48  90 W15       30.18F
PORT TOWNSEND  FAIR      61  43  51 NW6       30.15F
NAS WHIDBEY    PTSUNNY   54  46  74 W7        30.20F
ARLINGTON      SUNNY     64  47  53 NW9       30.14F
BURLINGTON     SUNNY     64  41  42 W7        30.15F
$$

WAZ020-022-039-040-504-511-512-120300-
SOUTHWEST INTERIOR

CITY           SKY/WX    TMP DP  RH WIND       PRES   REMARKS
SHELTON        PTSUNNY   67  47  48 W8        30.11S
OLYMPIA        MOSUNNY   68  42  38 E7        30.13S
CHEHALIS       FAIR      70  45  40 CALM      30.13F
KELSO          MOSUNNY   68  49  50 W8        30.12S
VANCOUVER      MOSUNNY   72  36  26 NW10      30.08F
SCAPPOOSE, OR  MOSUNNY   72  39  30 N12       30.08F
PORTLAND, OR   PTSUNNY   71  38  29 NW12      30.08F
$$

WAZ021-516-517-120300-
WASHINGTON COAST

CITY           SKY/WX    TMP DP  RH WIND       PRES   REMARKS
FORKS          PTSUNNY   53  47  79 NW5       30.20F
HOQUIAM        PTSUNNY   55  48  77 W9        30.18F
ASTORIA, OR    PTSUNNY   54  48  80 NW16      30.17S
$$

WAZ019-023-024-040-567>569-120300-
CASCADE MOUNTAINS AND COLUMBIA GORGE

CITY           SKY/WX    TMP DP  RH WIND       PRES   REMARKS
STAMPEDE PASS  SUNNY     53  35  50 VRB3      30.17S
TROUTDALE, OR  MOSUNNY   73  41  31 VRB5      30.07F
HOOD RIVER, OR PTCLDY    72  45  37 NW3       30.04F
THE DALLES, OR SUNNY     77  37  23 NW10      30.01F
$$

WAZ026-027-041>044-520-521-120300-
EAST SLOPES

CITY           SKY/WX    TMP DP  RH WIND       PRES   REMARKS
OMAK           NOT AVBL
WENATCHEE      MOSUNNY   72  32  23 VRB5      30.04F
ELLENSBURG     SUNNY     73  28  18 SW6       30.07S
YAKIMA         SUNNY     75  30  19 E3        30.04F
SUNNYSIDE ARPT CLEAR     75  24  15 CALM      30.05S
YAKIMA TC      FAIR      73  23  15 W5        30.04S
$$

WAZ028-034-035-120300-
COLUMBIA BASIN

CITY           SKY/WX    TMP DP  RH WIND       PRES   REMARKS
EPHRATA        SUNNY     74  25  16 N6        30.06S
MOSES LAKE     SUNNY     75  33  21 SE8       30.07S
PASCO          SUNNY     77  36  22 N7        30.05F
RICHLAND ARPT  CLEAR     77  35  21 NE9       30.05S
HERMISTON, OR  SUNNY     76  26  15 W6        30.05S
$$

WAZ036>038-120300-
NORTHEAST WASHINGTON

CITY           SKY/WX    TMP DP  RH WIND       PRES   REMARKS
SPOKANE GEIGER MOSUNNY   68  27  21 W9        30.09F
SPOKANE FELTS  MOSUNNY   69  30  23 SW6       30.08R
FAIRCHILD AFB  MOSUNNY   68  28  22 W9        30.09F
COEURDALENE,ID MOSUNNY   65  37  35 N5        30.10S
DEER PARK      SUNNY     69  29  22 CALM      30.09S
$$

WAZ029>033-120300-
SOUTHEAST WASHINGTON

CITY           SKY/WX    TMP DP  RH WIND       PRES   REMARKS
PULLMAN        SUNNY     66  26  22 NW6       30.12S
LEWISTON, ID   SUNNY     73  28  18 W7        30.06S
WALLA WALLA    SUNNY     71  33  24 NW6       30.06S
PENDLETON, OR  SUNNY     72  32  23 NW7       30.07S
$$


 

View Past Reports for Seattle, WA.

Products Courtesy of NOAA-NWS
NWS Information Parsing Script by Ken True at Saratoga Weather - Script by SE Lincoln Weather.